Arcata, CA (95518)

7:09 PM PDT on August 19, 2017 (GMT -0700)
The Bottoms | | Change Station

Elev 20 ft 40.87 °N, 124.10 °W | Updated 6 seconds ago

Partly Cloudy
Partly Cloudy
62.1 °F
Feels Like 62.1 °F
N
1.0
Wind Variable Wind from South

Today
High -- | Low -- °F
--% Chance of Precip.
Yesterday
High -- | Low -- °F
Precip. -- in
Pressure 29.93 in
Visibility 6.0 miles
Clouds Mostly Cloudy 1700 ft
Dew Point 54 °F
Humidity 76%
Rainfall 0.00 in
Snow Depth Not available.
6:30 AM 8:08 PM
Waning Crescent, 4% visible
METAR KACV 200153Z AUTO 16006KT 6SM HZ BKN017 17/12 A2991 RMK AO2 SLP134 T01670117
Pressure 29.93 in
Visibility 6.0 miles
Clouds Mostly Cloudy 1700 ft
Dew Point 54 °F
Humidity 76%
Rainfall 0.00 in
Snow Depth Not available.
6:30 AM 8:08 PM
Waning Crescent, 4% visible
METAR KACV 200153Z AUTO 16006KT 6SM HZ BKN017 17/12 A2991 RMK AO2 SLP134 T01670117

Get Severe Weather Alerts

Thanks for signing up!

Be on the lookout for a verification email in your inbox.

You'll start receiving the daily forecast at 6 AM.

×

10-Day Weather Forecast

Almanac

Astronomy

Aug. 19, 2017 Rise Set
Actual Time
Civil Twilight
Nautical Twilight
Astronomical Twilight
Moon
Length of Visible Light
Length of Day
Tomorrow will be .
, % of the Moon is Illuminated

Today's Extremes

State Highs State Lows

Community

WunderPhotos

Category 6

Welcome to Category 6. This is the collective home for Weather Underground's featured writeups by Dr. Jeff Masters (right), Bob Henson (left), Chris Burt, and other regular contributors.

Nearby

Air Quality

  Air Quality AQ Index Pollutant
Not available.

Snow Depth

Station Depth Elevation

Earthquake Activity

City Distance Mag. Time & Date
Minimum magnitude displayed is 2.5.

Coastal Water Temperatures

Place Temperature

Stations

Nearby Weather Stations

Station Location Temp. Windchill Dew Point Humidity Wind Precip. Elev Updated Type
                   

Watches & Warnings

There are currently no watches in effect.